Wind_Speed
2 2 2 1 1 1 1 2 2 2 2 2 1 1 1 1 1 1 1 2 2 2 2 3 3 3 3 3 3 3 4 4 4 4 4 5 5 6 6 6 5 6 6
1 1 1 1 1 1 1 1 1 2 2 2 1 1 1 1 1 1 1 1 2 2 2 3 3 4 4 4 4 4 5 5 5 6 5 5 6 7 7 7 7 7 7
3 2 2 1 1 0 1 0 1 2 2 2 2 1 2 2 2 2 2 2 2 3 3 4 3 4 4 4 5 5 6 7 7 7 7 7 7 8 8 8 8 8 9
5 4 3 2 1 1 1 2 1 2 3 3 3 3 3 3 3 3 3 3 3 3 4 4 5 5 5 5 5 6 7 8 8 8 8 8 9 9 9 9 10 10 10
6 5 4 3 2 2 2 3 2 2 2 3 3 3 3 4 4 4 4 4 4 5 5 5 5 6 5 6 6 7 8 8 8 8 9 9 9 10 10 10 11 11 12
7 6 5 4 4 3 3 3 3 3 3 4 4 3 4 4 4 5 5 5 5 6 6 6 6 6 7 7 7 8 9 9 9 10 10 10 11 11 11 12 13 12 12
8 6 6 6 5 4 4 4 4 3 3 4 4 4 4 5 5 5 5 5 6 6 6 7 7 7 7 8 8 9 9 10 10 11 11 11 11 12 12 13 13 13 14
8 7 6 6 6 6 5 4 4 3 4 4 4 5 5 5 5 5 5 5 6 6 6 7 7 8 8 9 10 10 10 10 10 11 12 12 13 13 13 13 13 14 15
9 8 7 7 7 6 6 5 4 4 5 5 5 5 6 6 6 7 7 7 7 7 7 7 8 8 9 10 11 11 11 11 11 12 12 13 14 15 15 15 15 15 16
10 9 8 8 7 7 7 6 5 5 6 6 6 6 6 7 8 8 8 8 8 8 8 8 9 9 10 11 11 12 12 13 13 13 14 15 15 16 15 15 16 16 16
12 11 10 9 8 7 7 7 6 6 7 7 7 7 7 8 8 8 8 8 9 9 9 9 9 10 10 11 11 12 13 13 14 14 15 16 17 17 17 16 17 17 17
12 12 11 10 9 8 8 8 8 8 8 8 8 8 8 8 8 9 9 9 10 10 10 10 10 11 11 11 12 12 12 13 14 14 15 16 16 17 17 17 17 18 19
12 12 12 11 10 9 9 9 10 10 9 9 9 9 9 9 9 10 10 11 11 12 11 11 12 12 12 13 13 13 14 15 15 16 16 16 17 17 17 17 18 19 19
14 13 13 12 11 10 10 10 10 10 10 10 10 9 10 10 10 10 10 11 11 12 11 12 12 13 14 14 15 15 15 16 16 17 17 17 18 18 18 19 19 20 20
14 14 14 12 11 11 11 11 10 10 10 10 10 10 11 11 11 11 11 11 12 12 12 12 13 14 14 14 15 16 16 17 18 18 19 20 20 20 20 20 21 22 22
14 13 13 13 12 11 11 10 10 11 11 10 10 10 11 11 12 12 12 13 13 12 13 14 14 14 14 15 16 17 17 18 19 19 20 21 21 21 21 22 22 23 23
14 14 14 13 13 12 11 11 11 11 10 10 11 11 12 12 13 13 13 13 14 14 15 15 15 15 15 16 17 17 18 19 19 20 20 21 21 22 22 23 23 23 23
14 14 14 14 13 13 12 11 11 11 11 11 11 12 12 13 14 14 13 14 15 15 16 16 16 17 17 18 18 19 19 20 20 20 21 21 22 23 23 24 24 24 24
15 15 15 14 14 13 13 12 12 12 12 12 12 12 13 13 14 14 14 15 15 16 16 17 17 18 18 19 19 20 21 21 22 23 23 23 23 24 24 24 24 25 25
16 16 15 15 15 14 14 13 13 13 13 13 13 14 14 14 15 15 16 16 16 16 17 17 18 19 19 20 21 21 22 23 24 24 24 24 25 25 25 25 25 26 26
17 16 16 15 15 15 14 14 14 15 15 14 15 15 15 15 15 16 17 17 17 17 18 19 19 20 21 21 22 23 24 24 24 24 25 25 26 26 27 27 27 27 27
17 17 17 16 16 16 16 15 16 16 16 16 16 16 16 17 17 17 17 18 18 19 19 20 21 21 22 23 24 24 24 25 25 25 26 26 27 28 28 28 28 28 28
18 18 18 18 18 18 18 18 18 18 17 18 18 17 18 17 17 18 18 18 19 20 21 22 23 23 23 24 25 25 26 26 26 26 27 28 28 29 29 29 29 29 29
18 18 18 19 19 19 19 19 20 19 19 19 19 19 19 19 19 19 19 20 21 21 23 23 23 23 24 25 26 26 27 27 27 27 28 28 29 29 30 30 30 31 31
19 19 19 19 19 20 21 21 21 21 20 20 19 20 20 20 20 20 21 21 22 23 24 24 24 24 24 26 26 27 27 28 28 28 28 29 29 29 29 30 30 31 31
20 20 20 20 20 21 22 22 21 21 21 21 21 21 21 21 22 22 22 22 23 24 24 24 25 25 26 26 26 27 28 29 30 29 29 30 30 30 30 31 30 30 31
Wind_Direction
103 103 97 116 137 166 162 155 161 166 149 151 172 179 183 186 194 233 253 250 252 263 263 257 258 256 248 238 244 254 255 264 256 253 250 241 235 236 240 242 244 244 244
48 27 65 100 132 151 185 165 178 182 180 193 192 197 201 208 229 268 277 266 268 269 274 277 266 262 257 258 264 265 260 259 262 257 259 251 243 244 243 242 247 249 250
52 39 25 48 105 64 357 319 230 231 232 230 235 250 258 240 258 276 277 274 270 270 276 285 286 280 270 272 268 266 268 266 265 263 259 258 254 251 253 251 252 254 255
32 32 28 32 22 356 345 343 294 269 258 255 263 270 274 264 265 273 274 274 281 282 280 283 289 292 280 276 273 270 271 272 273 266 261 262 260 258 257 258 258 259 259
35 36 36 32 5 344 349 345 309 287 273 265 271 266 258 264 269 267 269 271 279 286 287 284 285 287 285 278 275 278 276 275 273 269 267 268 266 261 262 263 264 264 261
31 30 26 18 358 343 333 323 307 283 267 263 268 265 259 262 265 269 272 275 279 285 285 283 282 282 284 281 276 277 277 278 273 269 269 270 270 267 267 266 266 266 264
22 17 11 0 353 343 331 329 317 297 285 265 261 259 261 266 270 273 272 273 277 282 284 282 282 280 279 278 277 277 277 276 273 273 272 271 271 269 269 267 267 267 267
12 9 358 348 343 340 332 323 315 304 296 277 264 261 266 271 268 271 273 275 279 282 285 285 282 280 278 277 278 278 278 278 277 275 276 273 272 274 270 268 268 269 269
2 354 350 343 337 333 326 319 310 302 296 280 270 267 271 275 274 276 274 276 278 282 286 288 289 287 283 282 280 278 279 277 278 278 277 277 276 275 273 271 271 271 269
359 355 347 342 335 329 326 323 313 307 295 283 273 269 270 277 278 280 277 279 279 280 281 284 287 287 285 285 282 280 280 279 280 280 280 279 280 284 280 275 272 271 270
356 354 347 343 339 328 316 311 307 302 294 285 277 273 274 279 278 281 282 284 283 279 280 283 282 282 284 285 285 283 282 281 281 281 282 283 281 281 279 278 274 271 271
354 351 346 342 338 328 321 314 308 303 297 291 280 276 280 280 277 277 278 282 284 285 284 283 279 280 281 283 285 286 285 283 283 283 283 283 282 280 279 278 276 273 272
349 346 343 340 334 329 321 318 312 306 300 294 287 278 280 281 279 278 278 281 282 282 281 279 276 279 281 282 284 285 285 285 285 285 284 282 284 282 283 284 280 277 275
342 342 343 338 330 324 319 313 311 307 301 291 288 282 284 287 285 282 280 279 280 280 280 275 273 278 281 282 284 284 284 285 285 285 286 286 286 286 285 284 281 277 276
337 336 336 336 332 324 318 313 310 308 301 293 288 285 287 289 287 283 280 280 279 278 278 281 281 280 282 284 286 285 286 286 285 285 284 285 287 287 286 285 282 279 278
332 332 333 334 332 329 324 318 314 310 303 300 297 292 289 291 288 282 279 279 278 281 283 284 285 285 284 286 287 288 288 287 286 286 286 285 286 286 286 286 285 283 281
328 331 332 331 328 324 322 317 312 314 310 304 300 296 291 290 291 287 281 279 279 280 284 285 286 288 288 289 289 289 291 290 288 287 289 289 288 287 286 286 286 284 282
323 325 325 328 327 324 319 315 312 309 307 304 299 295 294 293 291 291 286 281 282 284 284 285 287 287 289 290 290 290 291 292 292 292 292 292 292 290 288 287 287 286 284
322 323 321 321 320 317 314 312 310 307 305 301 297 293 292 292 291 291 290 288 285 283 283 285 285 287 288 291 292 293 294 293 293 293 294 295 295 294 291 290 289 288 286
317 319 319 318 317 317 314 310 307 305 303 302 298 293 293 292 289 289 289 289 287 285 284 285 286 287 287 289 290 292 292 293 293 294 295 296 296 295 293 292 291 289 287
312 313 316 315 313 314 314 311 306 300 300 299 297 294 290 292 291 290 289 290 289 287 286 286 288 288 287 287 289 291 293 293 293 294 296 296 295 295 294 293 292 290 289
307 309 310 310 310 310 311 309 308 304 300 297 296 293 290 289 291 292 291 291 293 293 292 292 291 290 289 289 290 291 293 293 294 295 295 295 295 295 294 293 292 291 290
305 306 307 307 306 306 307 305 304 304 300 297 295 293 291 288 288 288 289 292 293 294 295 295 293 292 292 292 292 292 293 294 295 295 295 296 296 295 294 292 290 290 289
301 302 303 304 306 305 305 305 303 301 298 297 295 292 291 287 287 289 291 292 292 294 294 296 296 295 294 294 294 294 295 294 293 294 294 295 295 296 295 293 292 291 290
298 300 301 301 303 303 302 301 299 299 300 298 295 295 295 295 293 292 292 292 292 294 293 293 294 294 295 296 295 294 295 296 295 295 295 295 295 295 296 296 294 292 292
297 298 298 298 299 300 299 298 297 298 298 298 297 297 297 297 296 295 294 293 293 293 293 293 294 295 296 296 296 295 296 296 296 296 296 296 297 296 296 296 295 293 292
Height
5893 5893 5893 5893 5892 5893 5893 5893 5893 5893 5893 5893 5893 5893 5893 5893 5893 5893 5893 5892 5893 5892 5892 5892 5891 5891 5892 5892 5892 5892 5892 5893 5893 5893 5893 5893 5893 5893 5894 5894 5894 5894 5894
5894 5893 5893 5893 5892 5892 5892 5893 5893 5893 5893 5893 5893 5893 5893 5893 5893 5893 5892 5892 5892 5892 5892 5891 5891 5890 5891 5891 5891 5891 5891 5892 5892 5892 5892 5892 5892 5892 5892 5892 5893 5893 5893
5893 5893 5893 5892 5892 5892 5892 5892 5892 5892 5892 5893 5893 5893 5893 5893 5893 5892 5892 5892 5891 5891 5891 5891 5890 5890 5890 5890 5890 5890 5890 5890 5890 5890 5890 5890 5891 5891 5891 5891 5891 5891 5892
5894 5893 5893 5892 5892 5892 5892 5892 5892 5892 5892 5892 5892 5892 5892 5892 5892 5891 5891 5891 5891 5891 5890 5890 5890 5889 5889 5889 5889 5889 5889 5889 5889 5888 5888 5889 5889 5889 5889 5889 5889 5889 5890
5895 5894 5894 5893 5892 5892 5892 5892 5891 5891 5891 5891 5891 5891 5891 5891 5890 5890 5890 5890 5890 5890 5889 5889 5889 5888 5888 5888 5887 5887 5887 5887 5887 5887 5887 5887 5887 5887 5887 5887 5887 5887 5887
5895 5895 5894 5894 5893 5892 5892 5891 5891 5890 5890 5890 5890 5890 5890 5889 5889 5889 5889 5889 5889 5888 5888 5888 5887 5887 5887 5886 5886 5886 5886 5885 5885 5885 5884 5884 5884 5884 5884 5884 5884 5884 5884
5896 5895 5894 5894 5893 5892 5891 5890 5890 5889 5889 5889 5889 5889 5889 5888 5888 5888 5888 5887 5887 5887 5886 5886 5886 5885 5885 5885 5884 5884 5884 5883 5883 5882 5882 5881 5881 5881 5881 5881 5881 5881 5881
5896 5895 5894 5893 5892 5891 5890 5890 5889 5889 5888 5888 5888 5888 5888 5888 5887 5887 5886 5886 5886 5885 5885 5884 5884 5883 5883 5883 5882 5882 5881 5881 5880 5880 5879 5879 5878 5878 5878 5878 5877 5877 5877
5896 5895 5894 5893 5891 5891 5890 5889 5888 5888 5888 5887 5887 5887 5887 5886 5886 5885 5885 5884 5884 5883 5883 5882 5882 5881 5881 5880 5880 5879 5879 5878 5878 5877 5876 5876 5875 5874 5874 5874 5874 5873 5873
5896 5895 5893 5892 5891 5890 5889 5888 5887 5887 5886 5886 5885 5885 5885 5885 5884 5883 5883 5882 5882 5881 5881 5880 5880 5879 5878 5878 5877 5876 5876 5876 5875 5874 5873 5872 5872 5871 5870 5869 5869 5869 5868
5896 5894 5892 5891 5889 5888 5888 5886 5886 5885 5885 5884 5883 5883 5883 5882 5881 5881 5881 5880 5879 5879 5878 5878 5877 5877 5876 5875 5874 5874 5873 5872 5872 5871 5870 5869 5868 5867 5866 5865 5864 5864 5864
5896 5894 5892 5890 5888 5887 5886 5885 5884 5884 5883 5882 5881 5881 5880 5880 5879 5879 5878 5877 5877 5876 5875 5875 5874 5874 5873 5872 5871 5871 5870 5869 5868 5867 5866 5865 5864 5863 5862 5861 5860 5859 5859
5895 5893 5891 5889 5887 5886 5885 5884 5883 5882 5881 5880 5879 5878 5878 5877 5877 5876 5876 5875 5874 5874 5873 5872 5871 5871 5870 5869 5868 5868 5867 5866 5865 5864 5862 5861 5860 5859 5858 5857 5856 5854 5854
5894 5892 5890 5888 5886 5884 5883 5882 5881 5880 5879 5878 5877 5876 5875 5875 5874 5873 5873 5872 5872 5871 5870 5869 5868 5867 5866 5866 5865 5864 5863 5862 5861 5859 5858 5857 5856 5854 5853 5852 5851 5850 5849
5893 5891 5889 5886 5884 5883 5881 5880 5879 5878 5877 5876 5875 5874 5873 5872 5871 5870 5870 5870 5869 5868 5867 5866 5865 5864 5863 5862 5861 5860 5859 5858 5856 5855 5854 5852 5851 5850 5848 5847 5846 5844 5843
5892 5890 5887 5885 5883 5881 5879 5878 5877 5876 5874 5873 5872 5871 5870 5870 5869 5868 5867 5867 5866 5865 5864 5863 5862 5861 5860 5859 5857 5856 5855 5853 5851 5850 5849 5847 5846 5844 5843 5841 5840 5838 5837
5891 5888 5886 5884 5881 5879 5878 5876 5875 5873 5872 5871 5869 5869 5867 5866 5865 5864 5864 5863 5862 5861 5861 5859 5858 5857 5856 5855 5853 5852 5850 5848 5847 5845 5844 5842 5840 5838 5837 5835 5833 5832 5831
5889 5886 5884 5882 5879 5877 5875 5874 5872 5871 5869 5868 5867 5865 5864 5863 5862 5861 5860 5859 5858 5858 5857 5856 5854 5853 5852 5850 5849 5847 5845 5844 5842 5840 5838 5836 5834 5832 5830 5829 5827 5825 5824
5886 5884 5882 5879 5877 5875 5873 5871 5870 5868 5866 5865 5863 5862 5861 5860 5859 5858 5856 5855 5854 5853 5853 5851 5850 5848 5847 5845 5844 5842 5840 5838 5836 5834 5832 5830 5828 5826 5824 5822 5820 5818 5817
5884 5881 5879 5877 5874 5872 5870 5868 5867 5865 5863 5862 5860 5859 5857 5856 5855 5854 5853 5851 5850 5849 5848 5847 5845 5844 5842 5840 5838 5837 5835 5832 5830 5828 5826 5824 5822 5820 5818 5816 5814 5811 5809
5881 5879 5876 5874 5871 5869 5867 5865 5864 5862 5860 5858 5857 5855 5854 5852 5851 5850 5849 5847 5846 5844 5843 5842 5840 5838 5837 5835 5833 5831 5829 5826 5824 5822 5820 5817 5815 5813 5810 5808 5806 5803 5801
5877 5875 5873 5871 5868 5866 5864 5862 5860 5858 5856 5854 5852 5851 5850 5848 5847 5845 5844 5843 5842 5840 5838 5836 5835 5833 5831 5829 5827 5824 5822 5820 5818 5816 5813 5811 5808 5805 5802 5800 5798 5795 5793
5873 5871 5869 5867 5865 5862 5860 5858 5856 5854 5852 5850 5848 5846 5845 5844 5842 5841 5839 5838 5837 5835 5833 5831 5829 5827 5825 5822 5820 5818 5815 5813 5811 5808 5806 5803 5800 5797 5794 5792 5789 5787 5785
5869 5867 5865 5863 5861 5858 5856 5854 5852 5849 5847 5845 5844 5842 5840 5838 5837 5836 5834 5833 5832 5830 5827 5825 5823 5820 5818 5816 5813 5811 5808 5806 5803 5801 5798 5795 5792 5789 5786 5783 5781 5778 5776
5864 5862 5860 5858 5856 5854 5852 5849 5847 5845 5843 5841 5839 5837 5835 5833 5832 5830 5829 5827 5825 5823 5821 5818 5816 5814 5811 5809 5806 5804 5801 5798 5796 5793 5790 5787 5784 5781 5778 5775 5772 5769 5767
5859 5857 5855 5853 5851 5849 5847 5844 5842 5840 5838 5836 5834 5832 5830 5828 5826 5824 5822 5820 5818 5817 5814 5812 5809 5807 5804 5802 5799 5796 5793 5790 5787 5785 5782 5779 5775 5772 5770 5766 5763 5760 5757